2013 ITU World Triathlon Grand Final London : Sep 13 2013 : 55-59 Male AG Sprint : Results

Pos First Name Last Name Country Time Swim T1 Bike T2 Run
1 Anatolijs Levsa LAT 01:10:37 00:10:44 00:02:49 00:36:01 00:02:46 00:18:19
2 Ralf Laermann GER 01:11:18 00:12:06 00:02:43 00:36:02 00:02:41 00:17:48
3 Christos Garefis GRE 01:12:04 00:10:16 00:03:14 00:35:54 00:03:14 00:19:27
4 Hermann Dr. Scheiring GER 01:12:58 00:12:14 00:03:56 00:35:16 00:03:00 00:18:34
5 Richard Burnell AUS 01:13:20 00:11:45 00:02:58 00:37:11 00:02:53 00:18:34
6 Lincoln Murdoch USA 01:13:48 00:12:25 00:03:17 00:35:56 00:03:18 00:18:54
7 Steven Pyle USA 01:13:54 00:11:49 00:03:31 00:35:30 00:03:12 00:19:54
8 James Aust USA 01:14:06 00:12:46 00:03:37 00:35:16 00:03:13 00:19:16
9 Paul Gittings GBR 01:14:36 00:12:25 00:03:18 00:35:59 00:03:12 00:19:44
10 Kevin Partridge GBR 01:15:20 00:10:49 00:03:28 00:38:21 00:03:25 00:19:20
11 Ulrich Nikulla GER 01:15:35 00:13:33 00:03:19 00:36:49 00:02:54 00:19:03
12 Sergey Knyazev RUS 01:15:54 00:12:26 00:03:27 00:37:40 00:03:11 00:19:12
13 Ian Webster GBR 01:16:04 00:12:43 00:03:41 00:37:50 00:03:10 00:18:42
14 Kenny Brown GBR 01:16:05 00:11:55 00:03:23 00:37:48 00:03:25 00:19:37
15 Peter Zoller GER 01:16:49 00:11:18 00:03:29 00:38:05 00:03:10 00:20:49
16 Kevin Sutton CAN 01:16:54 00:12:02 00:03:13 00:38:16 00:03:13 00:20:13
17 Richard Dunbabin GBR 01:16:57 00:12:45 00:03:09 00:37:53 00:02:57 00:20:15
18 Martin Durkin AUS 01:17:12 00:13:10 00:03:38 00:37:49 00:03:12 00:19:25
19 Jeffrey Schumann USA 01:17:40 00:11:53 00:04:17 00:36:50 00:03:38 00:21:04
20 Stirling Farmer GBR 01:17:41 00:13:33 00:03:25 00:38:14 00:03:07 00:19:24
21 Allan Bieber COK 01:17:49 00:12:52 00:03:27 00:36:39 00:03:17 00:21:36
22 Thomas Stroup USA 01:17:49 00:13:34 00:03:20 00:37:13 00:03:08 00:20:36
23 Paul Bowskill NZL 01:17:57 00:12:24 00:03:05 00:39:58 00:02:56 00:19:35
24 Tim Woodman GBR 01:18:05 00:14:09 00:03:09 00:36:24 00:03:18 00:21:06
25 Alan Kerr GBR 01:18:09 00:13:28 00:03:17 00:38:48 00:03:14 00:19:25
26 Mike Morris GBR 01:18:21 00:12:52 00:03:43 00:38:09 00:03:35 00:20:04
27 David Sutherland GBR 01:18:48 00:11:59 00:03:24 00:39:31 00:03:11 00:20:45
28 Michael Godfrey CAN 01:18:56 00:13:36 00:03:39 00:36:28 00:03:47 00:21:28
29 Christopher Sardo GBR 01:18:57 00:15:39 00:03:20 00:36:33 00:03:19 00:20:09
30 James Bright USA 01:18:57 00:12:44 00:03:43 00:39:33 00:03:21 00:19:39
31 Steve Gallagher USA 01:18:59 00:12:05 00:03:45 00:39:20 00:03:47 00:20:04
32 Holger Witthöft GER 01:19:00 00:12:36 00:04:14 00:38:57 00:03:27 00:19:48
33 Graham Chapman GBR 01:19:11 00:14:01 00:03:39 00:38:15 00:03:26 00:19:52
34 Taylor Scott Cook USA 01:19:17 00:13:38 00:03:35 00:38:37 00:03:11 00:20:17
35 Phillip Hermitage AUS 01:19:48 00:12:53 00:03:35 00:39:42 00:03:23 00:20:17
36 Iain Gerrard GBR 01:19:56 00:10:09 00:03:45 00:39:44 00:03:37 00:22:43
37 Ken Ardern AUS 01:19:59 00:16:36 00:03:26 00:38:16 00:03:12 00:18:31
38 John Martin USA 01:20:02 00:14:19 00:03:51 00:37:24 00:04:13 00:20:18
39 Ian Pettitt GBR 01:20:14 00:10:13 00:03:41 00:38:10 00:03:54 00:24:17
40 Marc Saucier USA 01:20:25 00:12:30 00:04:00 00:40:28 00:03:28 00:20:00
41 Per-olof Branzell SWE 01:20:38 00:12:06 00:03:39 00:41:01 00:03:13 00:20:41
42 Jeff Reed USA 01:20:47 00:15:23 00:04:03 00:37:17 00:03:23 00:20:42
43 Alexander Antipov RUS 01:21:13 00:11:55 00:03:33 00:39:59 00:03:27 00:22:21
44 Robert Rickman GBR 01:21:14 00:15:00 00:03:35 00:37:46 00:03:25 00:21:30
45 Alan Brocklehurst GBR 01:21:19 00:14:39 00:03:53 00:39:24 00:03:13 00:20:11
46 Henrik Funch GBR 01:21:19 00:11:40 00:04:31 00:39:56 00:03:48 00:21:25
47 Stephen Feest GBR 01:21:27 00:14:10 00:03:44 00:39:29 00:03:23 00:20:42
48 Mark Drangsholt USA 01:21:34 00:15:18 00:03:22 00:38:05 00:03:27 00:21:24
49 Mike Tyler AUS 01:21:36 00:14:13 00:03:57 00:38:22 00:03:42 00:21:23
50 Geoff Stoddart COK 01:21:39 00:13:21 00:04:07 00:38:50 00:03:34 00:21:49
51 Alistair Asher GBR 01:21:51 00:12:05 00:03:48 00:37:52 00:03:37 00:24:32
52 Lars Hyllested DEN 01:21:56 00:12:03 00:04:02 00:39:14 00:03:39 00:23:00
53 Lee Holdaway GBR 01:22:11 00:16:44 00:03:34 00:37:07 00:03:22 00:21:24
54 Richard Parsons USA 01:22:25 00:14:02 00:03:44 00:39:03 00:03:34 00:22:04
55 Vaughan Lloyd GBR 01:22:34 00:13:38 00:03:38 00:39:36 00:03:29 00:22:15
56 Stephen Mcshane CAN 01:22:47 00:15:29 00:03:21 00:39:28 00:03:25 00:21:06
57 James Wilson CAN 01:22:50 00:13:54 00:04:19 00:39:33 00:03:43 00:21:24
58 Martin Hopwood GBR 01:23:20 00:13:30 00:03:33 00:41:08 00:03:34 00:21:37
59 Rob Pearson GBR 01:23:27 00:15:48 00:03:50 00:39:37 00:03:39 00:20:35
60 Wayne Skillman AUS 01:23:31 00:14:15 00:03:42 00:39:37 00:03:34 00:22:24
61 Robert Briggs GBR 01:23:53 00:15:35 00:04:24 00:38:14 00:03:36 00:22:06
62 Gavin Mcculloch AUS 01:24:27 00:14:28 00:03:21 00:42:18 00:03:20 00:21:03
63 Peter Mccormick CAN 01:24:49 00:13:36 00:04:01 00:41:58 00:03:40 00:21:37
64 Miles Gibson CAN 01:25:03 00:15:14 00:04:11 00:40:03 00:03:52 00:21:46
65 Richard Cooney GBR 01:25:04 00:13:42 00:03:28 00:42:54 00:03:21 00:21:40
66 Alberto Torrente ITA 01:25:42 00:15:39 00:04:56 00:41:29 00:03:39 00:20:01
67 Guy Creber AUS 01:25:54 00:14:09 00:03:57 00:41:21 00:03:38 00:22:52
68 Uli Mix GER 01:26:21 00:17:44 00:03:49 00:41:10 00:03:36 00:20:05
69 Peter Landon-lane NZL 01:26:52 00:15:51 00:03:31 00:40:05 00:03:59 00:23:29
70 Neil Cullen AUS 01:27:39 00:16:31 00:03:44 00:41:44 00:03:32 00:22:10
71 Eduardo Francisco Borja Ruy Sanchez MEX 01:29:12 00:16:36 00:04:18 00:41:45 00:03:47 00:22:48
72 Jamie Colliver CAN 01:29:28 00:15:28 00:04:19 00:41:14 00:04:07 00:24:23
73 Scott Wilson CAN 01:29:45 00:16:12 00:03:58 00:43:10 00:03:40 00:22:46
74 Shlomo Yunger ISR 01:29:51 00:16:12 00:04:05 00:40:36 00:04:37 00:24:23
75 Brett Knowles CAN 01:30:28 00:17:18 00:04:05 00:41:17 00:03:37 00:24:12
76 Paul Felgate AUS 01:30:30 00:15:12 00:04:14 00:39:52 00:03:59 00:27:15
77 Brian Bess USA 01:30:31 00:13:25 00:04:29 00:46:21 00:04:31 00:21:48
78 Rene Ortiz Salinas MEX 01:30:56 00:14:20 00:03:51 00:46:17 00:04:58 00:21:32
79 Jorge Eduardo Duque Padilla MEX 01:31:01 00:17:23 00:03:50 00:45:13 00:03:46 00:20:51
80 Jose Francisco Cavazos Ruiz MEX 01:31:21 00:15:12 00:04:37 00:44:15 00:04:44 00:22:35
81 Jose Luis Rojas Benitez MEX 01:33:50 00:16:42 00:08:26 00:41:46 00:05:03 00:21:55
82 Alfred Szramek CAN 01:34:07 00:21:00 00:03:38 00:42:22 00:03:53 00:23:15
83 Carm Morra CAN 01:34:39 00:17:21 00:05:13 00:43:17 00:04:46 00:24:05
84 Bill Frazer AUS 01:36:04 00:17:55 00:04:14 00:44:57 00:04:16 00:24:45
85 Richard Low CAN 01:36:44 00:18:19 00:05:08 00:43:32 00:04:26 00:25:20
86 Roberto Vinagre BRA 01:37:20 00:14:10 00:05:13 00:49:52 00:04:30 00:23:36
87 Michael Krisa CAN 01:44:30 00:15:31 00:05:12 00:45:24 00:05:47 00:32:37
88 David Zarowny CAN 01:46:12 00:18:59 00:05:21 00:45:13 00:05:04 00:31:37
89 Lawrence Wetzel HKG 01:48:41 00:22:26 00:06:41 00:48:29 00:05:06 00:26:00
90 John Lee CAN 01:55:37 00:24:48 00:05:44 00:47:34 00:06:58 00:30:35
DNF Michael Battersby GBR 00:00:00 00:11:21 00:03:31 00:00:00 00:00:00 00:00:00
DSQ Daniel Schallmo GER 00:00:00 00:11:58 00:03:43 00:00:00 00:00:00 00:00:00
DSQ William Baker USA 00:00:00 00:13:30 00:04:12 00:00:00 00:00:00 00:00:00
DSQ Jim Simm CAN 00:00:00 00:15:09 00:03:46 00:00:00 00:00:00 00:00:00

Water Temperature 16.5 C